sat.trackr.live / text

‹ back to catalog

STARLINK-33712

NORAD 63797 · 2025-091Y

PAYLOAD ACTIVE UNKNOWN

§ Identity

Operator
Country
US
Launch date
2025-05-02
Launch site
AFETR
Launch vehicle
Mass (kg)
RCS (m²)

Purposes: comms

External: N2YO · Heavens-Above · Gunter

§ Orbital elements

Epoch: 2026-09-20T19:42:03.041856Z

Period
94.27 min
Inclination
43.0050°
Eccentricity
0.0002343
Mean motion
15.27583503 rev/d
Perigee alt
481.4 km
Apogee alt
484.6 km
Semi-major
6,861.2 km
B*
3.8275e-4
RAAN
34.1669°
Arg perigee
268.3781°
Mean anomaly
91.6802°
Rev number
7,870

§ Raw data

STARLINK-337121 63797U 25091Y   26263.82086854  .00010286  00000+0  38275-3 0  99932 63797  43.0050  34.1669 0002343 268.3781  91.6802 15.27583503 78709

JSON: /api/v1/satellites/63797 · /tle

For live sub-satellite position, see the globe view (requires WebGL).

§ Visibility from observer

Set your observer location to see the next 7 days of passes ≥ 10°. The values pass through the URL so the page stays shareable.

No JS? Fill the form by hand. The geolocation button needs JavaScript.